Location: Sankt Anna
(58.3452°N, 16.7040°E)
Time: 20:29:59
(UTC+01:00)

Envisat - Visible Passes

Search period start: 23 March 2019 00:00
Search period end: 02 April 2019 01:00
Orbit: 764 x 766 km, 98.2° (Epoch: 22 March)

Date Brightness Start Highest point End Pass type
(mag) Time Alt. Az. Time Alt. Az. Time Alt. Az.
23 Mar 4.8 19:06:14 10° SSW 19:10:53 35° W 19:15:33 10° NNW visible
24 Mar 6.0 20:11:29 10° WSW 20:13:59 14° W 20:16:31 10° NW visible
25 Mar 5.5 19:32:36 10° SW 19:36:41 24° W 19:40:47 10° NW visible
26 Mar 4.5 18:54:46 10° SSW 18:59:33 41° W 19:04:24 10° NNW visible
27 Mar 5.9 19:59:28 10° WSW 20:02:35 16° W 20:05:44 10° NW visible
28 Mar 5.3 19:20:59 10° SSW 19:25:20 28° W 19:29:43 10° NNW visible
29 Mar 6.4 20:27:42 10° W 20:28:36 10° WNW 20:29:31 10° WNW visible
30 Mar 5.8 19:47:37 10° SW 19:51:12 19° W 19:54:49 10° NW visible
31 Mar 5.0 20:09:26 10° SSW 20:14:00 33° W 20:18:37 10° NNW visible
01 Apr 6.1 21:14:59 10° WSW 21:17:10 13° W 21:19:22 10° NW visible
